• In India
  • List of Countries
  • For 7 days
  • Water Temperature
  • Satellite Maps
  • Weather Map
  • Weather Widgets
  • user-avatar
    Login

    Hourly Weather Lasek

    Today, 17 July, Tuesday

    Time Temperature Precipitation Wind Pressure Humidity
    00:00 +19°C° 0.5 mm 1 mps 742 mmHg 86%
    01:00 +18°C° 0 mm 2 mps 742 mmHg 89%
    02:00 +17°C° 0.2 mm 2 mps 741 mmHg 90%
    03:00 +17°C° 0.2 mm 2 mps 741 mmHg 91%
    04:00 +17°C° 0.2 mm 2 mps 741 mmHg 92%
    05:00 +18°C° 0.1 mm 3 mps 741 mmHg 90%
    06:00 +19°C° 0.1 mm 3 mps 741 mmHg 88%
    07:00 +20°C° 0.1 mm 4 mps 741 mmHg 86%
    08:00 +20°C° 0.7 mm 4 mps 741 mmHg 85%
    09:00 +21°C° 0.7 mm 5 mps 741 mmHg 84%
    10:00 +21°C° 0.7 mm 5 mps 741 mmHg 83%
    11:00 +21°C° 0.9 mm 5 mps 741 mmHg 84%
    12:00 +20°C° 0.9 mm 5 mps 741 mmHg 86%
    13:00 +20°C° 0.9 mm 5 mps 741 mmHg 88%
    14:00 +20°C° 0.8 mm 5 mps 741 mmHg 89%
    15:00 +20°C° 0.8 mm 5 mps 741 mmHg 89%
    16:00 +20°C° 0.8 mm 6 mps 741 mmHg 89%
    17:00 +19°C° 0.6 mm 5 mps 741 mmHg 91%
    18:00 +19°C° 0.6 mm 5 mps 741 mmHg 92%
    19:00 +19°C° 0.6 mm 5 mps 741 mmHg 93%
    20:00 +19°C° 0.2 mm 4 mps 741 mmHg 94%
    21:00 +18°C° 0.2 mm 4 mps 741 mmHg 94%
    22:00 +18°C° 0.2 mm 4 mps 741 mmHg 94%
    23:00 +18°C° 0 mm 4 mps 741 mmHg 95%

    Tomorrow, 18 July, Wednesday

    Time Temperature Precipitation Wind Pressure Humidity
    00:00 +18°C° 0 mm 4 mps 741 mmHg 95%
    01:00 +18°C° 0 mm 4 mps 741 mmHg 95%
    02:00 +17°C° 0.1 mm 5 mps 741 mmHg 95%
    03:00 +17°C° 0.1 mm 5 mps 741 mmHg 95%
    04:00 +17°C° 0.1 mm 6 mps 740 mmHg 95%
    05:00 +17°C° 0.5 mm 6 mps 741 mmHg 94%
    06:00 +17°C° 0.5 mm 7 mps 741 mmHg 93%
    07:00 +18°C° 0.5 mm 7 mps 741 mmHg 92%
    08:00 +18°C° 1.2 mm 7 mps 741 mmHg 92%
    09:00 +18°C° 1.2 mm 7 mps 741 mmHg 92%
    10:00 +18°C° 1.2 mm 8 mps 741 mmHg 91%
    11:00 +18°C° 1.7 mm 8 mps 742 mmHg 92%
    12:00 +18°C° 1.7 mm 8 mps 742 mmHg 92%
    13:00 +18°C° 1.7 mm 7 mps 742 mmHg 92%
    14:00 +18°C° 1.5 mm 7 mps 742 mmHg 93%
    15:00 +18°C° 1.5 mm 7 mps 742 mmHg 93%
    16:00 +18°C° 1.5 mm 7 mps 743 mmHg 93%
    17:00 +19°C° 0.9 mm 6 mps 743 mmHg 93%
    18:00 +19°C° 0.9 mm 6 mps 743 mmHg 94%
    19:00 +19°C° 0.9 mm 5 mps 743 mmHg 94%
    20:00 +19°C° 0.6 mm 5 mps 743 mmHg 94%
    21:00 +19°C° 0.6 mm 5 mps 744 mmHg 95%
    22:00 +17°C° 0.6 mm 5 mps 744 mmHg 95%
    23:00 +17°C° 0.9 mm 5 mps 744 mmHg 95%

    Day after tomorrow, 19 July, Thursday

    Time Temperature Precipitation Wind Pressure Humidity
    00:00 +17°C° 0.9 mm 5 mps 744 mmHg 95%
    01:00 +17°C° 0.9 mm 5 mps 744 mmHg 95%
    02:00 +17°C° 1 mm 5 mps 744 mmHg 95%
    03:00 +17°C° 1 mm 5 mps 744 mmHg 95%
    04:00 +17°C° 1 mm 5 mps 744 mmHg 95%
    05:00 +17°C° 1.5 mm 5 mps 744 mmHg 95%
    06:00 +17°C° 1.5 mm 5 mps 744 mmHg 95%
    07:00 +16°C° 1.5 mm 5 mps 744 mmHg 95%
    08:00 +17°C° 2 mm 5 mps 744 mmHg 95%
    09:00 +17°C° 2 mm 5 mps 745 mmHg 94%
    10:00 +17°C° 2 mm 5 mps 745 mmHg 94%
    11:00 +17°C° 1.5 mm 5 mps 745 mmHg 93%
    12:00 +17°C° 1.5 mm 5 mps 745 mmHg 92%
    13:00 +19°C° 1.5 mm 4 mps 745 mmHg 92%
    14:00 +19°C° 0.6 mm 4 mps 745 mmHg 90%
    15:00 +20°C° 0.6 mm 4 mps 745 mmHg 89%
    16:00 +20°C° 0.6 mm 4 mps 745 mmHg 87%
    17:00 +20°C° 0.3 mm 4 mps 745 mmHg 89%
    18:00 +19°C° 0.3 mm 3 mps 745 mmHg 91%
    19:00 +19°C° 0.3 mm 3 mps 745 mmHg 92%
    20:00 +19°C° 0.2 mm 3 mps 745 mmHg 93%
    21:00 +18°C° 0.2 mm 3 mps 745 mmHg 94%
    22:00 +17°C° 0.2 mm 3 mps 746 mmHg 95%
    23:00 +17°C° 0.4 mm 3 mps 746 mmHg 95%

    20 July, Friday

    Time Temperature Precipitation Wind Pressure Humidity
    00:00 +17°C° 0.4 mm 3 mps 746 mmHg 95%
    01:00 +17°C° 0.4 mm 3 mps 746 mmHg 95%
    02:00 +17°C° 0.1 mm 3 mps 746 mmHg 95%
    03:00 +16°C° 0.1 mm 3 mps 746 mmHg 95%
    04:00 +16°C° 0.1 mm 3 mps 746 mmHg 95%
    05:00 +17°C° 0.1 mm 3 mps 746 mmHg 94%
    06:00 +17°C° 0.1 mm 3 mps 746 mmHg 93%
    07:00 +17°C° 0.1 mm 3 mps 746 mmHg 92%
    08:00 +19°C° 0 mm 3 mps 746 mmHg 87%
    09:00 +20°C° 0 mm 3 mps 746 mmHg 82%
    10:00 +21°C° 0 mm 3 mps 746 mmHg 77%
    11:00 +22°C° 0.2 mm 3 mps 746 mmHg 74%
    12:00 +24°C° 0.2 mm 3 mps 746 mmHg 71%
    13:00 +25°C° 0.2 mm 3 mps 746 mmHg 69%
    14:00 +25°C° 0.1 mm 3 mps 745 mmHg 67%
    15:00 +25°C° 0.1 mm 3 mps 745 mmHg 66%
    16:00 +25°C° 0.1 mm 3 mps 745 mmHg 64%
    17:00 +25°C° 0 mm 2 mps 745 mmHg 68%
    18:00 +24°C° 0 mm 2 mps 745 mmHg 71%
    19:00 +23°C° 0 mm 1 mps 745 mmHg 75%
    20:00 +22°C° 0 mm 1 mps 745 mmHg 78%
    21:00 +21°C° 0 mm 1 mps 745 mmHg 82%
    22:00 +19°C° 0 mm 1 mps 745 mmHg 85%
    23:00 +19°C° 0 mm 1 mps 745 mmHg 87%

    21 July, Saturday

    Time Temperature Precipitation Wind Pressure Humidity
    00:00 +18°C° 0 mm 1 mps 745 mmHg 89%
    01:00 +18°C° 0 mm 1 mps 745 mmHg 91%
    02:00 +16°C° 0 mm 1 mps 745 mmHg 91%
    03:00 +16°C° 0 mm 1 mps 744 mmHg 92%
    04:00 +16°C° 0 mm 1 mps 744 mmHg 92%
    05:00 +18°C° 0 mm 1 mps 745 mmHg 87%
    06:00 +19°C° 0 mm 1 mps 745 mmHg 83%
    07:00 +21°C° 0 mm 1 mps 745 mmHg 78%
    08:00 +21°C° 0 mm 2 mps 745 mmHg 71%
    09:00 +23°C° 0 mm 2 mps 745 mmHg 65%
    10:00 +24°C° 0 mm 2 mps 745 mmHg 58%
    11:00 +25°C° 0 mm 2 mps 745 mmHg 56%
    12:00 +26°C° 0 mm 2 mps 744 mmHg 54%
    13:00 +26°C° 0 mm 2 mps 744 mmHg 51%
    14:00 +26°C° 0 mm 2 mps 744 mmHg 51%
    15:00 +26°C° 0 mm 2 mps 744 mmHg 51%
    16:00 +26°C° 0 mm 2 mps 743 mmHg 51%
    17:00 +25°C° 0 mm 2 mps 743 mmHg 56%
    18:00 +24°C° 0 mm 2 mps 744 mmHg 61%
    19:00 +23°C° 0 mm 1 mps 744 mmHg 66%
    20:00 +21°C° 0 mm 1 mps 744 mmHg 68%
    21:00 +20°C° 0 mm 1 mps 744 mmHg 71%
    22:00 +19°C° 0 mm 1 mps 744 mmHg 74%
    23:00 +18°C° 0 mm 1 mps 744 mmHg 76%

    22 July, Sunday

    Time Temperature Precipitation Wind Pressure Humidity
    00:00 +18°C° 0 mm 1 mps 744 mmHg 79%
    01:00 +16°C° 0 mm 1 mps 744 mmHg 82%
    02:00 +16°C° 0 mm 1 mps 744 mmHg 84%
    03:00 +15°C° 0 mm 1 mps 745 mmHg 86%
    04:00 +15°C° 0 mm 1 mps 745 mmHg 88%
    05:00 +18°C° 0 mm 1 mps 745 mmHg 83%
    06:00 +19°C° 0 mm 1 mps 745 mmHg 78%
    07:00 +20°C° 0 mm 1 mps 745 mmHg 73%
    08:00 +21°C° 0 mm 2 mps 745 mmHg 67%
    09:00 +23°C° 0 mm 2 mps 745 mmHg 61%
    10:00 +24°C° 0 mm 3 mps 745 mmHg 55%
    11:00 +25°C° 0 mm 3 mps 745 mmHg 53%
    12:00 +25°C° 0 mm 3 mps 745 mmHg 52%
    13:00 +26°C° 0 mm 3 mps 745 mmHg 50%
    14:00 +26°C° 0 mm 3 mps 745 mmHg 52%
    15:00 +26°C° 0 mm 3 mps 745 mmHg 53%
    16:00 +26°C° 0 mm 3 mps 745 mmHg 54%
    17:00 +25°C° 0.1 mm 2 mps 745 mmHg 60%
    18:00 +24°C° 0.1 mm 2 mps 745 mmHg 66%
    19:00 +23°C° 0.1 mm 2 mps 745 mmHg 72%
    20:00 +21°C° 0 mm 1 mps 745 mmHg 75%
    21:00 +20°C° 0 mm 1 mps 745 mmHg 77%
    22:00 +19°C° 0 mm 1 mps 746 mmHg 80%
    23:00 +19°C° 0 mm 1 mps 746 mmHg 82%
    Show more